Flag for Canada Weather past 2 weeks in Newmarket, Ontario, Canada

Now
0 °F

Overcast.


Feels Like: 0 °F
Forecast: -5 / 22 °F
Wind: No wind

Location: Borden

Current Time: Jan 31, 2015 at 4:33:24 AM

Latest Report: Jan 31, 2015 at 4:00 AM


Visibility: 9 mi

Pressure: 30.35 "Hg

Humidity: 92%

Dew point: -2 °F

Location of NewmarketLocation

Historic Weather in Newmarket — Graph

°F

Newmarket temperature yesterday

Maximum temperature yesterday: 28 °F (at 12:00 AM)
Minimum temperature yesterday: 5 °F (at 11:00 PM)
Average temperature yesterday: 12 °F

Past Weeks' High & Low Weather Summary

 TemperatureHumidityPressure
High43 °F (Jan 18, 1:00 AM)100% (Jan 16, 9:00 PM)30.40 "Hg (Jan 16, 9:00 PM)
Low-17 °F (Jan 21, 4:00 AM)41% (Jan 26, 5:00 PM)29.42 "Hg (Jan 24, 3:01 PM)
Average14 °F78%30.03 "Hg
* Reported Jan 16 3:00 AM — Jan 31 3:00 AM, Newmarket, Weather by CustomWeather, © 2014

Note: Actual official high and low records may vary slightly from our data, if they occured in-between our weather recording intervals... More about our weather records

Advertising

Newmarket weather history for previous 24 hours

 ConditionsComfort  
Time TempWeatherWind HumidityBarometerVisibility
3:00 AM
Jan 31
-2 °FOvercast.No wind100%30.38 "Hg9 mi
2:01 AM-6 °FOvercast.3 mph100%30.38 "Hg9 mi
1:00 AM-2 °FLow clouds.2 mph100%30.39 "Hg9 mi
12:59 AM-2 °FLow clouds.2 mph100%30.33 "Hg9 mi
12:00 AM5 °FOvercast.3 mph78%30.39 "Hg7 mi
11:00 PM
Jan 30
5 °FOvercast.5 mph85%30.40 "Hg5 mi
10:00 PM7 °FOvercast.7 mph85%30.40 "Hg3 mi
9:00 PM9 °FOvercast.3 mph78%30.39 "Hg9 mi
8:00 PM9 °FOvercast.8 mph78%30.39 "Hg7 mi
7:56 PM9 °FOvercast.8 mph78%30.33 "Hg6 mi
7:00 PM9 °FLight snow. Overcast.5 mph85%30.38 "Hg2 mi
6:01 PM9 °FLight snow. Ice fog.5 mph92%30.32 "Hg1 mi
5:00 PM9 °FLight snow. Ice fog.8 mph85%30.36 "Hg2 mi
4:00 PM9 °FLight snow. Ice fog.8 mph85%30.34 "Hg2 mi
3:59 PM9 °FLight snow. Ice fog.8 mph85%30.29 "Hg2 mi
3:00 PM9 °FLight snow. Overcast.10 mph85%30.33 "Hg1 mi
2:01 PM9 °FOvercast.16 mph78%30.27 "Hg2 mi
1:01 PM9 °FLight snow. Ice fog.15 mph78%30.26 "Hg1 mi
12:00 PM7 °FIce fog.18 mph78%30.31 "Hg2 mi
11:58 AM7 °FIce fog.18 mph78%30.26 "Hg2 mi
11:00 AM7 °FLow clouds.21 mph78%30.29 "Hg2 mi
10:57 AM7 °FLow clouds.20 mph78%30.25 "Hg2 mi
10:01 AM7 °FOvercast.15 mph85%30.22 "Hg1 mi
9:00 AM9 °FLight snow. Ice fog.15 mph85%30.24 "Hg1 mi
8:54 AM9 °FLight snow. Ice fog.14 mph85%30.19 "Hg1 mi
8:01 AM9 °FOvercast.15 mph85%30.16 "Hg3 mi
7:00 AM10 °FLight snow. Ice fog.12 mph85%30.16 "Hg1 mi
6:45 AM10 °FLight snow. Ice fog.10 mph92%30.11 "Hg2 mi
6:01 AM12 °FLight snow. Ice fog.15 mph92%30.07 "Hg1 mi
5:01 AM16 °FLight snow. Overcast.17 mph86%30.03 "Hg1 mi
4:00 AM19 °FLight snow. Overcast.15 mph86%30.01 "Hg1 mi
Weather by CustomWeather, © 2014

See weather overviewHow to use our weather pages